RH
44 39 32 24 18 12 7 4 3 3 2 3 4 7 9 10 10 11 18 21 20 20 20 22 24 23 15 14 12 11 11 10 9 8 5 3 6 20
43 35 26 19 12 6 3 3 3 3 2 5 8 9 9 12 17 20 22 23 24 23 24 27 29 29 24 16 15 13 12 12 12 11 8 7 5 3
37 27 18 11 6 3 3 3 4 7 6 7 10 11 17 21 22 23 24 27 28 30 33 35 34 34 36 29 24 20 16 14 13 12 10 8 7 7
27 18 9 4 3 3 3 5 8 12 11 9 13 20 23 26 26 30 33 35 36 38 40 42 38 37 39 36 33 27 24 21 17 15 14 14 13 9
17 8 4 3 3 4 7 9 12 12 14 19 19 24 25 29 35 36 34 37 43 45 43 43 34 28 27 26 24 25 21 19 17 14 13 15 17 13
7 3 3 4 5 8 11 13 13 16 20 23 22 25 30 35 38 39 34 41 41 38 33 34 33 30 27 26 28 26 26 23 19 18 16 16 29 31
3 3 4 7 11 15 16 16 23 27 27 28 29 32 35 38 43 43 42 43 37 40 42 42 38 36 33 32 31 40 46 41 39 40 41 42 44 48
4 5 9 14 17 18 21 32 32 33 34 39 40 39 41 44 46 48 53 50 36 49 56 43 44 31 34 47 71 82 75 61 59 59 58 56 52 47
6 10 15 18 19 24 33 33 35 42 50 49 44 46 46 54 54 55 62 62 57 59 76 48 49 48 54 71 73 68 69 64 61 58 52 51 62 61
11 17 19 20 27 33 34 34 36 42 52 51 54 54 56 59 63 69 69 70 64 62 88 75 61 65 64 66 71 81 80 77 44 39 46 59 75 71
19 22 23 31 36 39 40 40 43 50 54 57 60 63 64 65 69 72 76 81 69 67 73 84 75 83 72 70 67 81 84 80 54 30 44 66 63 59
23 27 36 37 40 46 49 51 51 54 53 54 57 60 65 68 71 76 80 83 79 53 53 79 87 86 74 65 70 85 85 79 74 74 89 56 59 56
27 33 37 42 48 55 60 61 61 58 56 57 57 60 62 66 70 74 85 87 77 62 68 100 82 76 86 78 71 85 93 88 90 71 68 78 80 73
36 40 48 51 56 63 66 65 62 60 58 58 60 62 65 70 71 74 82 88 85 75 77 90 91 86 86 81 78 75 95 94 84 93 87 90 88 80
46 52 55 59 64 68 67 61 59 60 64 64 63 64 67 72 75 75 80 88 87 89 95 90 89 85 96 93 88 79 90 92 79 79 99 94 89 78
52 62 63 63 61 53 41 38 40 39 39 46 58 66 70 76 80 82 79 84 85 86 100 100 100 90 89 94 94 86 94 94 68 79 94 86 79 78
56 59 55 46 39 34 36 40 45 45 47 47 52 66 76 81 84 86 87 87 88 87 78 90 100 97 91 93 93 87 91 79 70 68 77 76 72 91
56 50 41 37 36 37 39 41 47 49 52 56 59 68 80 83 84 88 91 93 90 92 81 76 90 93 89 90 96 90 86 79 78 60 54 60 60 90
39 35 36 38 40 45 49 53 54 59 62 67 71 72 77 90 92 92 95 96 95 94 91 77 92 97 91 81 84 100 95 95 90 75 59 46 46 59
36 38 40 44 49 52 55 58 60 65 69 73 75 80 83 88 94 94 94 96 96 96 95 86 80 94 100 97 85 85 99 94 98 89 77 68 46 43
39 40 42 46 52 57 61 65 68 72 74 78 83 83 84 82 91 97 99 100 98 99 94 97 90 99 100 100 91 85 100 99 88 82 88 84 72 57
51 52 50 48 51 59 66 69 71 77 82 86 86 87 84 82 90 99 100 97 98 98 98 98 100 96 92 98 93 95 90 98 98 90 85 82 76 65
67 65 59 52 52 60 68 72 76 86 94 92 90 89 86 86 90 100 100 99 98 97 100 99 99 96 94 97 100 95 91 92 99 96 93 92 84 72
Wind_Speed
42 42 43 44 46 48 50 52 56 62 64 58 55 46 44 42 39 37 35 35 37 40 41 43 46 47 48 49 52 54 52 51 49 49 50 59 64 69
44 44 45 47 48 49 49 49 50 54 63 58 53 50 46 40 37 39 41 44 45 43 42 42 43 45 46 45 46 49 52 51 48 49 48 47 49 59
44 46 47 50 49 49 49 49 50 50 56 55 50 46 43 43 43 45 45 46 45 44 42 41 42 42 43 43 44 44 45 47 46 44 43 43 45 47
46 48 49 49 49 49 49 49 49 48 51 54 47 44 45 45 46 46 44 44 43 42 41 40 38 37 37 39 39 39 39 40 43 43 42 39 38 42
48 49 48 49 49 48 48 47 47 47 46 49 47 46 47 46 44 42 43 41 39 37 37 36 35 34 35 36 38 37 41 41 42 45 47 47 42 40
48 48 48 48 48 48 47 46 46 46 45 46 47 46 45 44 44 43 42 39 36 33 32 32 33 36 38 39 40 43 43 44 45 46 47 49 47 41
46 46 46 45 45 45 47 46 45 46 46 47 46 44 43 43 43 42 42 40 35 33 32 33 36 36 36 39 40 40 39 41 42 42 43 43 43 39
46 45 43 42 43 43 43 44 44 46 45 44 43 43 42 43 42 41 39 38 37 33 34 35 34 34 34 33 32 35 34 34 35 36 37 36 36 35
45 44 42 42 43 43 42 43 44 43 41 41 42 42 42 40 41 39 37 38 37 35 37 39 35 37 31 30 32 31 31 33 32 32 33 32 32 31
43 42 42 42 42 43 43 43 43 40 39 40 38 39 39 37 37 37 37 38 37 37 36 40 38 34 33 31 27 26 27 29 28 28 28 29 31 30
40 40 41 41 42 42 42 42 40 38 38 38 36 36 35 34 34 37 37 38 37 38 38 39 36 34 32 27 24 24 24 24 26 26 26 27 28 30
39 38 39 41 40 39 39 38 38 36 35 34 33 32 32 32 32 33 34 36 36 36 33 33 31 31 31 25 22 21 23 24 25 24 24 26 26 27
39 38 38 38 38 36 34 33 33 34 33 34 34 33 33 32 32 32 31 32 32 33 27 27 29 27 29 30 24 21 22 23 25 24 24 24 24 25
37 36 36 36 35 33 32 31 30 31 32 34 34 33 33 32 31 30 29 29 30 32 25 27 31 30 29 29 29 22 22 24 24 23 25 26 25 25
35 34 33 32 31 30 29 30 31 32 33 33 33 33 33 32 31 31 29 28 29 29 26 26 28 27 28 27 29 27 25 23 26 25 24 24 24 26
31 29 29 29 30 31 31 30 31 33 34 34 34 34 33 32 30 30 31 28 29 27 25 25 26 26 27 27 27 26 26 26 24 24 25 26 25 26
31 30 29 30 30 29 29 29 30 30 31 31 31 32 32 32 30 28 28 29 29 28 26 21 27 27 26 25 26 25 26 26 24 23 26 25 26 26
30 31 31 31 32 31 30 29 28 29 30 30 30 31 33 32 32 29 27 28 29 27 25 20 23 25 25 26 27 26 25 24 24 23 25 26 25 22
31 32 32 31 31 30 30 29 28 28 29 30 30 31 32 33 33 32 29 28 27 25 23 19 22 22 23 24 25 27 26 26 27 27 25 25 25 23
32 32 32 30 29 29 28 28 28 28 29 29 29 30 31 32 32 31 29 29 27 25 21 19 21 22 22 22 21 19 24 27 27 27 26 25 25 25
30 29 29 30 29 29 28 28 28 29 30 30 30 30 30 31 29 30 30 27 27 26 22 18 17 23 24 25 25 21 21 22 23 25 27 28 26 26
30 29 28 28 29 29 29 29 29 29 29 30 29 30 29 28 29 29 29 29 26 24 21 18 17 24 26 27 25 24 22 21 23 24 22 20 21 24
30 29 28 28 28 28 28 28 28 28 28 29 30 30 29 28 27 28 28 27 26 23 21 19 18 20 22 24 27 27 25 24 23 23 24 27 28 26
Wind_Direction
316 316 315 315 316 315 314 313 313 314 313 317 315 315 312 310 306 299 293 290 289 290 291 286 279 275 272 270 269 271 272 272 270 265 255 247 244 243
313 314 315 314 314 313 312 311 311 310 309 313 313 313 312 309 306 302 300 299 299 297 293 287 280 274 271 270 269 269 271 272 271 270 269 264 257 250
312 314 314 313 313 312 311 310 309 308 306 307 309 311 308 306 305 302 301 300 299 296 292 286 281 275 271 269 267 267 269 272 273 272 271 269 265 261
312 313 312 312 311 311 310 309 308 306 305 306 310 308 306 304 302 302 302 300 299 296 292 288 282 278 274 270 269 269 269 269 272 275 276 269 269 267
312 311 311 310 311 310 308 307 305 304 304 304 306 305 304 303 303 303 303 302 300 296 292 290 286 280 275 272 272 271 270 272 272 273 275 278 273 269
311 310 311 311 311 309 307 306 305 304 304 303 303 304 303 303 305 306 304 302 300 294 291 290 285 280 277 275 273 272 272 272 271 270 270 271 276 273
309 310 311 311 309 307 307 307 306 305 305 304 305 304 305 305 307 306 302 300 298 295 293 291 289 287 283 279 276 274 272 271 270 268 267 269 271 275
310 311 311 309 306 305 305 305 305 305 306 306 304 304 306 305 307 302 299 297 297 300 297 293 294 291 288 280 272 264 265 266 268 267 266 268 272 270
311 311 309 308 306 305 306 305 305 304 304 302 304 305 304 305 304 302 300 297 299 299 296 298 300 296 292 280 273 273 272 272 274 269 266 266 266 265
311 310 308 308 306 307 306 306 304 306 305 302 302 303 303 303 301 299 297 296 295 295 291 292 297 297 293 282 282 277 276 270 272 271 266 262 262 264
309 309 308 307 308 307 306 306 306 305 302 304 305 304 304 303 301 297 297 295 297 297 292 292 297 294 291 286 275 277 273 275 269 268 266 265 265 265
309 309 306 307 308 308 308 308 305 305 306 308 308 309 308 305 304 300 295 293 295 297 295 292 292 291 288 280 278 278 274 274 274 266 262 264 263 262
310 309 309 309 309 309 308 308 308 308 311 313 314 314 312 310 308 303 295 292 292 293 302 291 291 288 285 287 277 276 270 270 269 263 264 265 264 264
311 311 310 309 309 311 310 308 308 312 315 316 318 319 315 312 310 306 298 292 288 290 294 288 287 287 282 282 278 272 269 268 269 263 257 262 265 269
311 310 309 309 309 310 311 313 315 316 316 316 318 320 318 316 314 311 305 296 292 287 285 287 286 286 276 280 276 274 272 264 265 263 261 263 264 263
308 310 310 310 312 312 314 313 311 311 314 317 318 319 320 319 316 313 311 303 297 297 277 276 283 287 282 277 275 274 274 270 267 263 261 262 264 258
312 313 314 311 311 311 312 311 311 312 312 313 315 318 321 322 319 316 312 308 302 301 297 269 267 279 281 276 277 276 273 272 274 272 262 261 258 256
313 314 314 314 315 315 314 315 315 315 315 317 318 320 321 323 323 320 316 313 308 303 301 283 265 272 275 270 268 272 272 271 269 266 263 262 257 259
313 314 316 315 314 316 318 319 320 320 320 321 322 321 322 323 323 322 317 315 311 304 300 281 264 273 278 275 272 274 272 267 267 266 267 267 261 255
313 313 314 315 316 317 318 319 321 322 322 322 322 323 322 321 321 322 319 318 314 310 299 286 269 267 274 282 278 271 272 269 268 267 268 267 264 258
313 313 314 315 316 317 319 321 323 323 324 325 324 322 322 319 321 324 322 317 313 311 303 294 267 256 262 269 274 281 275 274 272 271 265 263 263 262
317 317 316 315 315 317 319 321 324 324 323 324 324 325 323 323 324 325 324 320 315 312 304 297 275 257 259 265 272 275 275 281 270 270 266 264 267 265
318 318 317 317 317 318 319 321 322 324 325 326 328 328 328 329 325 325 324 322 315 311 303 296 293 282 273 263 266 274 279 273 269 265 265 264 272 275